Location: Roanoke
(37.2710°N, 79.9420°W)
Time: 18:16:29
(UTC-04:00)

Daily predictions for brighter satellites

Satellite Brightness Start Highest point End
(mag) Time Altitude Azimuth Time Altitude Azimuth Time Altitude Azimuth
Cosmos 1766 Rocket 3.6 19:00:53 10° N 19:05:20 75° E 19:09:48 10° SSE
Cosmos 2151 4.1 19:02:28 10° NNE 19:05:52 23° ENE 19:09:15 10° SE
Delta 2 Rocket 4.0 19:03:52 10° SW 19:07:15 32° SSE 19:10:23 10° E
Cosmos 1842 Rocket 4.3 19:03:34 10° SSE 19:07:35 33° E 19:11:35 10° NNE
Meteor 2-21 Rocket 4.4 19:04:26 10° S 19:10:31 76° E 19:16:35 10° N
SL-14 R/B 3.2 19:06:45 10° N 19:10:36 87° ENE 19:14:27 10° S
Cosmos 2366 rocket 4.0 19:06:21 10° S 19:12:28 60° E 19:18:33 10° NNE
SMAP 3.9 19:10:04 10° S 19:14:38 56° W 19:19:13 10° NNW
MTI 4.2 19:12:28 10° N 19:15:40 66° WNW 19:18:49 10° SSW
Cosmos 1242 Rocket 4.4 19:12:58 10° SW 19:16:18 36° WNW 19:19:42 10° N
Cosmos 2221 3.8 19:16:32 10° SE 19:19:32 19° E 19:22:35 10° NE
ISS -3.6 19:20:01 10° NW 19:23:16 73° SW 19:26:32 10° SE
METEOR-M 4.1 19:18:12 10° SSE 19:23:31 69° ENE 19:28:50 10° N
FREGAT/IRIS 4.5 19:23:44 13° ENE 19:23:56 13° ENE 19:25:28 10° NE
Cosmos 1500 Rocket 4.0 19:20:48 10° N 19:24:51 36° ENE 19:28:51 10° SSE
SPOT 3 Rocket 3.6 19:20:03 10° SSE 19:25:08 62° ENE 19:30:17 10° N
SL-8 Rocket 4.3 19:21:20 10° SSW 19:27:30 75° W 19:33:44 10° N
Cosmos 1315 Rocket 3.9 19:27:33 10° NNE 19:30:56 25° ENE 19:34:20 10° SE
Cosmos 921 Rocket 4.2 19:28:33 10° NNE 19:32:08 23° ENE 19:34:56 13° ESE
COSMOS 2428 4.2 19:28:28 10° NNE 19:32:11 17° NE 19:34:16 15° E
NOSS 3 (A) 4.5 19:31:48 10° SSW 19:34:30 54° ESE 19:36:59 13° NE
Cosmos 2056 Rocket 3.5 19:31:49 10° NNW 19:37:10 90° E 19:42:23 10° SSE
Cosmos 1833 4.2 19:31:34 10° S 19:37:13 66° ESE 19:42:50 10° NNE
DMSP B5D1-3 4.5 19:32:54 10° NNE 19:38:01 66° ESE 19:43:06 10° S
Cosmos 2098 Rocket 4.2 19:36:35 10° SE 19:39:44 22° E 19:43:30 10° NNE
Cosmos 2360 Rocket 2.6 19:34:26 10° N 19:39:49 43° ENE 19:45:10 10° SE
NOAA 12 4.1 19:34:56 10° SSE 19:40:08 65° ENE 19:45:25 10° N
Meteor 2-1 Rocket 4.3 19:34:48 10° S 19:40:27 65° E 19:46:16 10° NNE
Cosmos 2058 2.9 19:36:37 10° N 19:40:45 56° E 19:44:48 10° SSE
Cosmos 2219 4.3 19:38:06 10° SSE 19:42:30 23° E 19:45:35 15° ENE
COSMO-SKYMED 1 3.2 19:39:58 10° N 19:44:15 59° WNW 19:48:31 10° SSW
RESURS DK-1 3.1 19:41:36 10° N 19:45:19 31° ENE 19:47:05 22° ESE
Cosmos 2322 Rocket 2.6 19:40:22 10° NNW 19:45:56 67° WSW 19:51:29 10° S
Cosmos 1626 2.1 19:43:46 10° N 19:47:31 84° W 19:51:14 10° S
SL-24 R/B - RUBIN 2 4.4 19:43:40 10° NNW 19:48:03 33° NE 19:49:57 23° E
Cosmos 1821 Rocket 4.4 19:44:40 10° SSE 19:50:13 37° E 19:55:50 10° NNE
BREEZE-M DEB (TANK) 2.1 19:49:42 10° WSW 19:51:43 39° NNW 19:52:35 25° NNE
SL-8 R/B 3.7 19:48:15 10° WSW 19:53:05 84° NNW 19:56:26 20° NE
SAR-Lupe-3 4.4 19:49:30 10° NNE 19:53:05 72° ESE 19:56:39 10° S
Lacrosse 5 rocket 4.3 19:52:19 10° NW 19:53:10 10° NNW 19:54:01 10° NNW
SJ-6B 3.6 19:55:11 28° ENE 19:55:11 28° ENE 19:58:19 10° NNE
Cosmos 1452 Rocket 3.6 19:49:58 10° N 19:55:05 50° ENE 20:00:10 10° SE
USA 267 3.3 19:49:38 11° NE 19:55:48 59° SE 20:02:13 10° SSW
Atlas Centaur 2 2.8 19:56:32 10° WSW 20:01:16 42° S 20:04:35 23° ESE
Cosmos 1727 Rocket 4.2 19:55:18 10° N 20:01:40 79° W 20:07:59 10° S
Cosmos 1805 Rocket 4.3 19:59:02 10° NNE 20:02:32 30° ENE 20:02:32 30° ENE
DELTA 2 R/B (1) 3.6 19:57:32 10° W 20:03:07 70° N 20:05:56 30° E
Cosmos 2322 3.8 19:59:39 10° NNW 20:05:18 56° ENE 20:09:19 19° SE
ALOS 2.6 20:04:02 10° S 20:08:40 69° WSW 20:13:20 10° NNW
BREEZE M DEB (TANK) 4.1 20:07:43 10° NW 20:09:53 14° N 20:10:26 14° NNE
CZ-4C R/B 2.5 20:06:50 10° S 20:11:29 37° ESE 20:12:17 35° E
FENGYUN 3A 3.9 20:07:55 10° S 20:13:17 71° WSW 20:18:41 10° NNW
Cosmos 1703 4.4 20:13:29 10° NNW 20:17:15 45° W 20:20:58 10° SSW
Cosmos 2123 Rocket 4.4 20:14:31 10° N 20:20:15 37° ENE 20:20:47 37° E
USA 234 4.5 20:28:02 23° NE 20:29:37 25° NNE 20:34:43 10° NNW
Tiangong 1 3.3 20:28:15 10° W 20:29:46 17° SW 20:29:46 17° SW
Cosmos 2219 Rocket 3.2 20:25:31 10° N 20:29:16 28° NE 20:29:16 28° NE
ASTRO E2 3.7 20:27:07 10° WSW 20:30:31 34° S 20:30:31 34° S
Thor Agena Rocket 4.1 20:27:49 10° N 20:32:49 56° WNW 20:37:44 10° SSW
Cosmos 1048 Rocket 3.8 20:29:12 10° SSW 20:34:20 88° ESE 20:38:42 15° NNE
Iridium 4 Rocket 4.1 20:34:24 10° SSW 20:39:39 61° W 20:45:21 10° N
Cosmos 2333 4.2 20:35:09 10° NNW 20:40:46 58° ENE 20:40:46 58° ENE
Cosmos 2237 4.1 20:35:12 10° NNW 20:40:58 90° WSW 20:42:59 43° SSE
Cosmos 1420 Rocket 4.0 20:37:10 10° NNW 20:42:30 81° WSW 20:44:26 40° S
Envisat 4.2 20:46:16 29° NNE 20:46:16 29° NNE 20:48:54 10° N
H-2A R/B 3.7 20:43:01 28° SSW 20:44:37 46° W 20:48:22 10° NNW
Resurs 01 Rocket 3.5 20:49:59 19° N 20:49:59 19° N 20:51:21 10° N
Cosmos 44 3.5 20:44:23 10° SSW 20:47:53 55° SW 20:47:53 55° SW
Cosmos 2221 4.4 20:53:05 10° SW 20:56:51 30° WNW 21:00:41 10° NNW
Cosmos 2237 Rocket 4.0 20:53:41 10° N 20:55:40 19° NNE 20:55:40 19° NNE
Cosmos 44 Rocket 3.7 20:54:41 10° SW 20:58:42 57° WSW 20:58:42 57° WSW
COSMOS 2428 3.1 21:11:19 10° NNW 21:16:20 62° WNW 21:16:20 62° WNW
Cosmos 2333 Rocket 3.5 21:14:59 10° NNW 21:18:02 32° N 21:18:02 32° N
Cosmos 2360 Rocket 4.3 21:19:05 10° NW 21:23:29 24° W 21:27:53 10° SSW
MOS 1-B Rocket 4.3 21:25:31 56° W 21:25:31 56° W 21:31:00 10° NNW
Cosmos 2219 4.2 21:20:49 10° SW 21:26:17 45° WNW 21:27:40 38° NNW
USA 267 4.2 21:37:01 35° N 21:38:36 40° NNW 21:44:36 10° W
Atlas Centaur 2 4.1 21:44:48 10° WSW 21:47:13 23° WSW 21:47:13 23° WSW
CZ-4C R/B 4.3 21:55:25 10° WSW 21:57:35 21° W 21:57:35 21° W
